Regional Weather Roundup
Issued by NWS

Home | Current Version | Previous Version | Graphics & Text | Print | Product List | Glossary On
Versions: 1 2 3 4 5 6 7 8 9 10 11 12 13 14 15 16 17 18 19 20 21 22 23 24 25 26 27 28 29 30 31 32 33 34 35 36 37 38 39 40 41 42 43 44 45 46 47 48 49 50
684
ASUS44 KJAN 220610
RWRMS

MISSISSIPPI HOURLY WEATHER ROUNDUP
NATIONAL WEATHER SERVICE JACKSON MS
100 AM CDT WED OCT 22 2014

NOTE: "FAIR: INDICATES FEW OR NO CLOUDS BELOW 12,000 FEET WITH NO
SIGNIFICANT WEATHER AND/OR OBSTRUCTIONS TO VISIBILITY.

MSZ001>002-007>008-010>013-018>021-025>028-034>036-220700-
NORTHWEST MISSISSIPPI

CITY           SKY/WX    TMP DP  RH WIND       PRES   REMARKS
CLARKSDALE     FAIR      55  54  94 CALM      30.10S
CLEVELAND      FAIR      56  51  86 CALM      30.08S FOG
GREENWOOD      CLEAR     52  50  93 CALM      30.08S
6HR MIN TEMP:  51; 6HR MAX TEMP:  63;

GREENVILLE     CLEAR     55  50  83 CALM      30.08S
6HR MIN TEMP:  54; 6HR MAX TEMP:  69;

GRENADA          N/A    N/A N/A N/A MISG        N/A
OLIVE BRANCH   CLEAR     54  52  94 NE6       30.12R
OXFORD         FAIR      46  46 100 CALM      30.12R
TUNICA         CLEAR     50  48  93 N3        30.11S
$$

MSZ003>006-009-014>017-022>024-029>033-037>039-220700-
NORTHEAST MISSISSIPPI

CITY           SKY/WX    TMP DP  RH WIND       PRES   REMARKS
COLUMBUS AFB   CLEAR     50  50  99 CALM      30.08R
6HR MIN TEMP:  49; 6HR MAX TEMP:  61;

CORINTH        FAIR      55  46  71 CALM      30.11R
GOLDN TRIANGLE CLEAR     52  46  82 CALM      30.07S
STARKVILLE     FAIR      50  48  93 CALM      30.08R
TUPELO         CLEAR     49  45  86 NE7       30.09R
6HR MIN TEMP:  49; 6HR MAX TEMP:  63;

$$

MSZ040-058-220700-
CENTRAL MISSISSIPPI

CITY           SKY/WX    TMP DP  RH WIND       PRES   REMARKS
JACKSON INTL   CLEAR     56  54  93 CALM      30.08R
6HR MIN TEMP:  54; 6HR MAX TEMP:  69;

JACKSON HAWKNS CLEAR     63  54  72 NE5       30.08R
6HR MIN TEMP:  58; 6HR MAX TEMP:  71;

MERIDIAN KEY   PTCLDY    51  50  96 CALM      30.07R
6HR MIN TEMP:  51; 6HR MAX TEMP:  64;

MERIDIAN NAS   CLEAR     53  51  93 NW3       30.07S
6HR MIN TEMP:  53; 6HR MAX TEMP:  68;

RAYMOND        HAZE      54  48  82 MISG      30.08S VSB 1/2
VICKSBURG      CLEAR     59  56  89 NE5       30.08R
6HR MIN TEMP:  54; 6HR MAX TEMP:  64;

$$

MSZ059>079-220700-
SOUTH MISSISSIPPI

CITY           SKY/WX    TMP DP  RH WIND       PRES   REMARKS
BROOKHAVEN     FAIR      54  54 100 CALM      30.07F FOG
HATTIESBURG    CLEAR     57  55  93 NW3       30.04F
6HR MIN TEMP:  54; 6HR MAX TEMP:  66;

MCCOMB         CLEAR     57  54  89 CALM      30.06R
6HR MIN TEMP:  57; 6HR MAX TEMP:  72;

NATCHEZ        CLEAR     55  54  94 CALM      30.06F
6HR MIN TEMP:  55; 6HR MAX TEMP:  66;

PINE BELT      CLEAR     57  54  88 N9        30.05F
6HR MIN TEMP:  54; 6HR MAX TEMP:  64;

$$

MSZ080>082-220700-
COASTAL MISSISSIPPI

CITY           SKY/WX    TMP DP  RH WIND       PRES   REMARKS
BILOXI         CLEAR     61  57  84 NE5       30.02F
6HR MIN TEMP:  60; 6HR MAX TEMP:  70;

PASCAGOULA     CLEAR     52  51  97 CALM      30.02F
6HR MIN TEMP:  52; 6HR MAX TEMP:  63;

GULFPORT       CLEAR     58  55  90 N3        30.02F
6HR MIN TEMP:  57; 6HR MAX TEMP:  69;

$$



USA.gov is the U.S. government's official web portal to all federal, state and local government web resources and services.